Simultaneous Nadir Overpasses (SNOs) Predictions

Prediction of SNOs between GOES-14 and AQUA Satellite Orbit:

Table of predicted SNOs for the next 14.0 days since TLE Epoch: 2/12/2022
Index Date Time (GOES-14) GOES-14 Lat,Lon AQUA Lat,Lon Distance(km) Time Diff (sec)
1 02/12/2022 20:30:28 -0.04,-104.34 0.09,-103.80 61.29 80
2 02/13/2022 08:51:44 0.04,-104.61 0.94,-108.97 495.47 80
3 02/14/2022 20:18:13 -0.04,-104.34 0.70,-100.82 399.53 80
4 02/15/2022 08:39:29 0.04,-104.61 0.33,-105.99 156.89 80
5 02/17/2022 08:29:54 0.04,-104.61 -0.29,-103.01 181.82 80
6 02/17/2022 20:51:15 -0.03,-104.35 -0.87,-108.18 435.44 80
7 02/19/2022 20:39:01 -0.03,-104.36 -0.22,-105.20 96.73 80
8 02/21/2022 20:24:06 -0.03,-104.35 0.44,-102.23 241.90 80
9 02/22/2022 08:45:20 0.03,-104.60 0.64,-107.39 317.08 80
10 02/24/2022 08:35:44 0.04,-104.60 0.02,-104.40 21.80 80
